Location: Chacón
(10.5789°N, 66.9317°W)
Time: 21:28:48
(UTC+00:00)

IRS-1D - Pass Details

Date: 23 May 2024
Orbit: 738 x 813 km, 98.8° (Epoch: 25 June)

Event Time Altitude Azimuth Distance (km) Brightness Sun altitude
Rises 08:20:16 0° 360° (N) 3,313 7.2 -24.2°
Reaches altitude 10° 08:22:44 10° 353° (N) 2,376 6.3 -23.6°
Enters shadow 08:27:24 40° 291° (WNW) 1,162 4.1 -22.6°
